ニート彗星

169P/NEAT (2022)

English version
Home page
Updated on October 22, 2022

---------------------------------------------------------------------

・ プロフィール

・ 軌道要素

Epoch 2022 Aug. 9.0 TT = JDT 2459800.5
T 2022 July  9.68232 TT                                 Rudenko
q   0.6028241            (2000.0)            P               Q
n   0.23480838     Peri.  218.04513     +0.82678565     -0.56235941
a   2.6021180      Node   176.10213     +0.55209861     +0.80670942
e   0.7683333      Incl.   11.29854     +0.10776181     +0.18158138
P   4.20
From 1294 observations 1989 Mar. 7-2022 June 7, mean residual 0".5.

・ 星図

・ 光度変化

        H = 15.3  G = 0.15                [   ,-61]  (              〜2022年 5月 9日)
        m1 = 15.8 + 5 logΔ + 20.0 log r  [-61, 50]  (2022年 5月 9日〜2022年 8月28日)
        H = 15.3  G = 0.15                [ 50,   ]  (2022年 8月28日〜              )

---------------------------------------------------------------------

軌道要素はM.P.E.C. 2022-M21に掲載されたものです。
星図はステラナビゲータ Ver.10 (アストロアーツ) で作成したものです。
光度グラフはComet for Windowsで作成したものです。

---------------------------------------------------------------------

Copyright(C) Seiichi Yoshida (comet@aerith.net). All rights reserved.